Probability
0 0 0 0 0 0 0 0 0 0 0 0 0 0 0 0 0 0 0 0 0 0 0 0 0 0 0 0 0 0 0 0 0 0 0 0 0 0 0 0 0 0 0 0
0 0 0 0 0 0 0 0 0 0 0 0 0 0 0 0 0 0 0 0 0 0 0 0 0 0 0 0 0 0 0 0 0 0 0 0 0 0 0 0 0 0 0 0
0 0 0 0 0 0 0 0 0 0 0 0 0 0 0 0 0 0 0 0 0 0 0 0 0 0 0 0 0 0 0 0 0 0 0 0 0 0 0 0 0 0 0 0
0 0 0 0 0 0 0 0 0 0 0 0 0 0 0 0 0 0 0 0 0 0 0 0 0 0 0 0 0 0 0 0 0 0 0 0 0 0 0 0 0 0 0 0
0 0 0 0 0 0 0 0 0 0 0 0 0 0 0 0 0 0 0 0 0 0 0 0 0 0 0 0 0 0 0 0 0 0 0 0 0 0 0 0 0 0 0 0
0 0 0 0 0 0 0 0 0 0 0 0 0 0 0 0 0 0 0 0 0 0 0 0 0 0 0 0 0 0 0 0 0 0 0 0 0 0 0 0 0 0 0 0
0 0 0 0 0 0 0 0 0 0 0 0 0 0 0 0 0 0 0 0 0 0 0 0 0 0 0 0 0 0 0 0 0 0 0 0 0 0 0 0 0 0 0 0
0 0 0 0 0 0 0 0 0 0 0 0 0 0 0 0 0 0 0 0 0 0 0 0 0 0 0 0 0 0 0 0 0 0 0 0 0 0 0 0 0 0 0 0
0 0 0 0 0 0 0 0 0 0 0 0 0 0 0 0 0 0 0 0 0 0 0 0 0 0 0 0 0 0 0 0 0 0 0 0 0 0 0 0 0 0 0 0
0 0 0 0 0 0 0 0 0 0 0 0 0 0 0 0 0 0 0 0 0 0 0 0 0 0 0 0 0 0 0 0 0 0 0 0 0 0 0 0 0 0 0 0
0 0 0 0 0 0 0 0 0 0 0 0 0 0 0 0 0 0 0 0 0 0 0 0 0 0 0 0 0 0 0 0 0 0 0 0 0 0 0 0 0 0 0 0
0 0 0 0 0 0 0 0 0 0 0 0 0 0 0 0 0 0 0 0 0 0 0 0 0 0 0 0 0 0 0 0 0 0 0 0 0 0 0 0 0 0 0 0
0 0 0 0 0 0 0 0 0 0 0 0 0 0 0 0 0 0 0 0 0 0 0 0 0 0 0 0 0 0 0 0 0 0 0 0 0 0 0 0 0 0 0 0
0 0 0 0 0 0 0 0 0 0 0 0 0 0 0 0 0 0 0 0 0 0 0 0 0 0 0 0 0 0 0 0 0 0 0 0 0 0 0 0 0 0 0 0
0 0 0 0 0 0 0 0 0 0 0 0 0 0 0 0 0 0 0 0 0 0 0 0 0 0 0 0 0 0 0 0 0 0 0 0 0 0 0 0 0 0 0 0
0 0 0 0 0 0 0 0 0 0 0 0 0 0 0 0 0 0 0 0 0 0 0 0 0 0 0 0 0 0 0 0 0 0 0 0 0 0 0 0 0 0 0 0
0 0 0 0 0 0 0 0 0 0 0 0 0 0 0 0 0 0 0 0 0 0 0 0 0 0 0 0 0 0 0 0 0 0 0 0 0 0 0 0 0 0 0 0
0 0 0 0 0 0 0 0 0 0 0 0 0 0 0 0 0 0 0 0 0 0 0 0 0 0 0 0 0 0 0 0 0 0 0 0 0 0 0 0 0 0 0 0
0 0 0 0 0 0 0 0 0 0 0 0 0 0 0 0 0 0 0 0 0 0 0 0 0 0 0 0 0 0 0 0 0 0 0 0 0 0 0 0 0 0 0 0
0 0 0 0 0 0 0 0 0 0 0 0 0 0 0 0 0 0 0 0 0 0 0 0 0 0 0 0 0 0 0 0 0 0 0 0 0 0 0 0 0 0 0 0
0 0 0 0 0 0 0 0 0 0 0 0 0 0 0 0 0 0 0 0 0 0 0 0 0 0 0 0 0 0 0 0 0 0 0 0 0 0 0 0 0 0 0 0
0 0 0 0 0 0 0 0 0 0 0 0 0 0 0 0 0 0 0 0 0 0 0 0 0 0 0 0 0 0 0 0 0 0 0 0 0 0 0 0 0 0 0 0
0 0 0 0 0 0 0 0 0 0 0 0 0 0 0 0 0 0 0 0 0 0 0 0 0 0 0 0 0 0 0 0 0 0 0 0 0 0 0 0 0 0 0 0
0 0 0 0 0 0 0 0 0 0 0 0 0 0 0 0 0 0 0 0 0 0 0 0 0 0 0 0 0 0 0 0 0 0 0 0 0 0 0 0 0 0 0 0
0 0 0 0 0 0 0 0 0 0 0 0 0 0 0 0 0 0 0 0 0 0 0 0 0 0 0 0 0 0 0 0 0 0 0 0 0 0 0 0 0 0 0 0
0 0 0 0 0 0 0 0 0 0 0 0 0 0 0 0 0 0 0 0 0 0 0 0 0 0 0 0 0 0 0 0 0 0 0 0 0 0 0 0 0 0 0 0
0 0 0 0 0 0 0 0 0 0 0 0 0 0 0 0 0 0 0 0 0 0 0 0 0 0 0 0 0 0 0 0 0 0 0 0 0 0 0 0 0 0 0 0
Wind_Speed
0 1 3 3 3 3 3 2 4 6 6 6 4 5 7 7 8 9 9 9 10 10 10 10 10 10 9 10 10 10 10 10 12 12 11 10 10 10 10 10 11 10 9 9
2 3 4 3 3 2 1 1 4 5 6 5 5 5 7 9 10 9 10 10 10 10 10 10 10 10 9 10 10 9 9 11 11 11 11 11 11 11 10 10 10 9 9 10
2 1 1 2 2 1 3 4 4 6 6 5 7 7 8 9 9 10 11 11 10 10 10 10 10 10 10 11 10 9 10 11 11 10 11 11 12 10 9 10 9 9 10 10
2 2 3 5 3 3 4 6 5 6 6 7 9 8 8 9 9 10 10 10 10 10 10 10 10 10 10 11 11 11 11 12 11 11 11 11 10 10 10 8 8 8 9 9
3 1 4 3 2 2 3 7 5 5 7 7 7 7 7 7 6 8 9 10 10 10 11 10 11 11 11 11 11 12 12 12 11 11 11 11 11 10 9 8 8 8 7 8
3 1 4 6 2 1 1 6 4 4 7 7 5 6 7 6 7 9 9 9 10 10 11 11 12 11 11 12 12 13 13 12 12 11 11 12 11 10 9 8 9 8 8 8
3 3 7 5 1 2 0 7 3 4 6 5 5 8 9 9 9 8 10 11 11 11 11 11 12 11 12 13 13 13 13 13 12 11 11 11 11 10 9 8 8 8 8 8
3 2 7 3 3 4 8 4 3 4 5 6 8 9 8 9 9 10 11 11 11 11 12 12 11 11 13 13 13 13 13 13 12 11 10 10 8 8 8 8 8 7 7 7
8 7 5 3 5 4 4 3 4 4 5 5 6 7 8 8 9 10 11 11 11 12 13 12 11 10 13 14 13 13 13 12 12 11 9 8 8 8 7 6 6 5 5 6
3 6 5 4 3 2 3 4 4 4 5 4 6 7 9 8 9 10 10 12 11 12 13 14 13 12 12 13 12 13 13 12 10 9 8 8 6 6 5 5 5 5 5 5
4 5 3 5 6 4 3 3 4 4 3 4 5 7 7 8 10 10 10 10 10 12 13 15 14 14 13 12 12 12 12 10 9 8 7 7 5 5 5 5 5 5 5 4
7 7 6 6 5 4 4 4 4 4 4 5 4 6 7 8 8 10 11 12 12 13 14 14 14 14 13 12 12 11 10 9 7 6 6 5 5 4 4 4 5 7 7 5
6 5 6 3 3 4 3 3 3 3 4 5 5 6 7 7 8 9 11 12 12 14 14 14 14 14 13 12 11 11 10 9 7 6 6 5 5 4 2 1 2 1 2 5
4 5 3 4 4 3 2 1 1 2 4 5 5 6 7 7 9 11 12 13 13 14 14 13 14 14 13 12 11 10 10 9 8 6 5 4 3 3 1 1 1 2 4 3
6 6 5 3 3 2 1 1 2 4 5 6 5 6 8 9 10 12 12 12 13 13 13 14 14 14 13 11 10 10 8 6 5 5 4 4 3 2 1 2 2 3 3 4
6 4 3 4 4 3 2 2 3 4 5 5 6 7 8 9 10 11 11 11 12 14 14 14 14 14 13 11 10 8 7 10 8 5 4 4 3 2 2 3 3 3 3 3
8 6 6 5 5 5 4 4 4 5 5 6 7 8 8 9 10 11 12 12 11 12 12 12 14 15 13 11 9 6 6 7 9 5 4 4 3 2 2 2 3 3 2 2
9 9 8 7 6 5 5 4 4 4 4 5 6 6 7 9 10 12 13 13 13 12 11 13 15 16 13 11 8 6 5 4 4 4 4 3 3 2 2 3 3 3 3 2
6 7 7 7 7 6 5 4 4 4 4 4 5 6 7 8 9 10 10 11 12 14 15 16 19 15 13 13 12 5 5 4 3 3 3 4 4 3 3 3 3 3 3 2
6 7 7 6 6 5 4 4 4 4 4 3 4 6 7 8 9 10 10 8 7 9 14 15 15 12 13 12 13 5 5 4 4 3 3 3 3 3 3 3 3 3 2 2
8 7 7 7 5 5 4 4 3 3 3 3 4 5 7 8 8 8 9 8 9 12 14 14 11 11 11 11 10 5 4 4 4 3 3 3 3 3 3 3 3 2 2 1
7 8 7 6 5 4 4 3 3 3 3 3 4 5 6 7 8 7 6 5 9 14 11 9 10 14 16 13 7 6 5 5 4 3 3 3 3 3 3 3 2 2 2 2
7 7 7 6 6 4 3 3 3 3 3 3 3 4 5 6 5 6 7 7 9 14 10 8 15 20 17 9 7 7 6 6 4 4 3 3 3 3 3 3 2 2 2 2
7 7 7 5 4 3 4 5 4 3 2 2 3 3 4 5 4 3 5 9 11 13 9 10 15 17 13 8 8 7 6 6 5 4 3 3 3 3 3 2 2 2 2 2
8 8 7 7 7 6 6 4 3 2 2 2 3 3 3 3 4 5 6 8 11 11 8 10 14 14 10 8 8 8 7 7 6 5 4 3 3 3 3 3 2 2 2 2
8 8 8 9 7 5 5 5 4 3 2 2 2 2 3 3 4 5 5 7 10 10 8 8 9 10 8 8 8 8 7 8 7 6 5 4 4 3 3 3 3 2 2 2
7 5 4 4 4 5 5 6 5 4 4 3 2 2 3 4 4 5 6 6 7 7 7 7 7 8 8 8 8 8 7 7 7 7 6 5 4 3 3 3 2 2 2 2
Wind_Direction
21 15 101 79 56 66 92 162 211 259 262 260 261 275 281 285 291 294 294 292 290 288 288 287 287 286 284 283 283 282 279 275 269 266 263 260 256 252 246 237 235 232 229 228
44 65 86 71 34 51 67 258 256 270 272 254 275 286 284 285 287 289 288 289 290 291 292 290 288 288 287 285 284 283 280 278 277 274 271 267 262 257 252 245 238 229 227 227
216 269 14 282 235 235 253 242 234 247 258 290 295 286 278 281 288 287 287 290 293 292 288 288 287 287 287 285 285 282 280 280 278 276 275 273 271 265 254 248 243 233 228 224
118 69 257 251 231 221 242 248 227 238 263 276 268 274 276 276 277 282 287 291 292 290 289 287 287 288 287 288 287 285 285 283 282 280 277 273 269 266 261 255 245 239 233 227
109 213 286 268 235 214 242 270 221 237 267 277 292 315 291 275 275 278 285 287 286 287 289 291 292 292 294 294 292 290 289 286 283 280 279 276 270 266 263 257 252 244 237 228
119 182 255 249 239 282 167 286 231 236 271 286 319 320 288 291 304 298 295 291 291 292 295 296 295 296 297 297 295 293 290 287 283 277 274 272 268 265 261 254 251 248 244 233
151 229 264 250 257 71 196 268 251 244 267 281 262 246 272 299 299 290 289 293 295 297 299 298 299 300 300 299 297 295 294 290 286 279 272 268 265 261 257 251 248 243 244 239
152 214 268 217 146 185 225 247 265 267 270 271 268 275 288 295 294 298 299 299 300 302 303 302 302 302 303 303 302 300 297 294 290 283 277 277 264 261 256 247 242 240 240 243
186 212 238 220 208 217 190 227 257 260 273 280 282 286 292 291 293 297 299 302 304 305 307 308 307 305 305 306 307 305 302 299 296 291 282 276 270 266 260 243 234 232 227 231
236 259 239 230 233 233 208 228 257 268 279 279 280 286 293 293 296 301 303 308 308 311 314 315 315 312 307 307 309 308 306 305 303 299 293 286 272 262 255 242 226 221 224 222
245 266 263 253 234 229 237 252 274 286 278 277 281 288 289 295 301 305 308 308 310 315 316 316 317 315 314 313 313 313 310 308 309 303 299 296 285 266 256 243 229 219 219 211
218 215 194 235 229 205 218 246 265 278 290 293 282 283 291 297 299 305 310 314 317 319 318 318 317 316 316 317 317 316 315 315 313 309 305 301 298 295 267 251 249 236 231 219
207 190 185 219 196 187 206 236 257 270 280 290 291 289 293 295 298 306 313 318 320 320 318 317 317 317 319 321 320 318 316 314 312 313 312 311 311 310 317 22 63 79 233 227
184 142 175 205 202 197 203 235 280 301 298 289 285 295 301 298 306 316 319 320 318 317 317 319 319 320 322 323 322 320 319 316 320 316 316 316 318 323 328 23 69 63 49 69
192 183 193 193 172 170 179 218 289 304 302 301 296 302 309 312 314 315 316 318 320 321 323 325 324 325 326 325 323 321 322 319 321 324 328 330 335 351 20 67 82 85 82 71
181 177 172 174 194 202 205 239 265 282 290 292 299 306 309 308 308 310 316 321 327 327 325 325 326 327 327 326 325 322 321 329 339 338 342 354 7 33 57 76 86 89 91 98
151 183 198 207 213 212 218 230 241 261 278 289 297 305 313 317 321 325 327 328 324 318 319 327 329 328 329 329 326 320 321 328 341 346 353 3 17 40 67 85 88 90 88 88
181 182 178 181 187 202 224 241 251 264 269 281 301 311 318 322 323 323 324 325 326 328 335 336 333 331 330 332 331 324 324 327 337 345 356 13 23 41 70 83 88 90 87 91
173 171 173 177 177 183 204 228 245 258 275 291 307 310 309 309 311 316 322 328 334 339 338 334 330 332 334 335 339 332 333 336 346 358 8 21 33 46 65 76 79 82 86 90
170 166 167 174 177 183 204 225 238 257 275 292 305 312 318 320 321 324 327 324 328 331 327 327 331 336 337 335 340 336 343 350 357 6 19 32 42 52 63 72 79 85 85 85
174 168 170 179 191 205 213 217 220 250 275 294 303 307 310 314 320 326 330 333 336 338 333 329 337 341 337 334 335 344 353 1 5 14 30 46 54 61 68 74 75 73 73 71
174 172 178 183 192 215 229 219 220 242 266 292 305 311 317 320 325 325 315 314 325 333 335 337 342 340 340 340 350 358 4 13 17 24 39 50 56 65 71 76 70 66 61 56
171 173 179 188 196 212 228 219 221 229 247 275 297 309 311 309 313 324 330 328 332 334 335 339 339 341 346 355 358 3 10 16 20 25 35 45 55 63 71 75 71 70 58 44
172 175 183 185 176 193 221 227 219 222 236 263 284 299 306 312 312 300 303 316 329 333 336 337 341 347 354 2 3 4 6 8 10 14 27 43 57 65 70 73 71 69 60 49
182 178 179 180 192 211 217 207 196 211 226 262 291 310 314 299 296 310 321 329 337 341 341 343 348 353 1 3 4 4 2 3 3 7 21 35 47 60 68 71 71 71 64 48
192 194 197 198 196 193 184 176 184 197 201 236 273 301 316 317 315 319 329 338 344 345 348 351 354 358 1 3 4 4 2 359 2 7 10 16 29 42 54 65 71 62 56 47
209 203 194 194 193 184 177 175 181 190 191 200 233 285 313 321 327 337 343 348 352 354 354 356 358 1 1 3 4 5 6 4 2 0 2 6 11 17 28 45 48 45 42 44